IRIDIUM 56 [+]

Last updated on Fri Aug 17 2018 01:20:51 GMT+0100 (British Summer Time)

1 25170U 98010B 18228.36483825 .00000208 00000-0 67037-4 0 9990 2 25170 86.4022 172.8195 0002392 84.5214 275.6255 14.34221098 72704
UTC large
Height (km)
Speed (km/s)
/
Latitude / Longitude
Inclination (degrees)
Orbital Period (minutes)
Azimuth
Elevation
Range (km)
Doppler Factor

Next 0 passes for location: London (51.5072 / 0.1276)

Sorry there are no passes over London.